Weather Roundup
Issued by NWS Corpus Christi, TX

Home | Current Version | Previous Version | Text Only | Print | Product List | Glossary On
Versions: 1 2 3 4 5 6 7 8 9 10 11 12 13 14 15 16 17 18 19 20 21 22 23 24 25 26 27 28 29 30 31 32 33 34 35 36 37 38 39 40 41 42 43 44 45 46 47 48 49 50
000
ASUS44 KCRP 241410
HRRCRP

SOUTH TEXAS REGIONAL WEATHER ROUNDUP
NATIONAL WEATHER SERVICE CORPUS CHRISTI TX
800 AM CST TUE JAN 24 2017


TXZ229>244-241500-
...CORPUS CHRISTI AREA OBSERVATIONS...

CITY           SKY/WX    TMP DP  RH WIND       PRES   REMARKS
CORPUS CHRISTI PTCLDY    63  61  93 S14       29.76S
NAS CORPUS CHR PTCLDY    66  63  90 S18G25    29.77S
ROCKPORT       CLEAR     67  62  84 S10G21    29.77S
KINGSVILLE NAS PTCLDY    62  60  93 S13       29.76S
ALICE          CLEAR     54  53  97 S6        29.76R
ORANGE GROVE   CLEAR     52  52 100 S5        29.77S
FALFURRIAS     CLEAR     61  58  88 S9        29.75F
$$

...VICTORIA AREA OBSERVATIONS...

CITY           SKY/WX    TMP DP  RH WIND       PRES   REMARKS
VICTORIA       PTCLDY    55  53  93 NE5       29.80R
BEEVILLE       FAIR      59  59 100 S9        29.76F
PLEASANTON     CLEAR     49  47  92 NE3       29.77S
SAN ANTONIO    PTCLDY    46  40  79 NW5       29.79R
$$

...LAREDO AREA OBSERVATIONS...

CITY           SKY/WX    TMP DP  RH WIND       PRES   REMARKS
LAREDO         CLEAR     60  47  61 SE14      29.72R
COTULLA        CLEAR     58  47  66 NE5       29.74R
DEL RIO        MOCLDY    53  36  52 E3        29.73R
MCALLEN        CLEAR     63  55  75 SE16G22   29.78S
HEBBRONVILLE   CLEAR     49  47  93 S3        29.75S
$$

...OTHER TEXAS OBSERVATIONS...

CITY           SKY/WX    TMP DP  RH WIND       PRES   REMARKS
BROWNSVILLE    CLEAR     67  64  90 S14       29.81R
HOUSTON        PTCLDY    59  56  89 S6        29.81S
COL. STATION   PTCLDY    51  51 100 SE3       29.78R
AUSTIN         PTCLDY    50  44  80 S7        29.76R
WACO           PTCLDY    54  44  69 S13       29.74R
FORT WORTH     CLOUDY    56  39  53 S13       29.67R
WICHITA FALLS  PTCLDY    43  36  76 S7        29.59S
LUBBOCK        PTCLDY    39  32  76 W9        29.64R
EL PASO        PTCLDY    49  31  49 W17G31    29.77R
$$

...MARINE OBSERVATIONS...

STATION/POSITION TIME  SKY/WX   TEMP    WIND        PRES    VSBY  WAVE   SWELL
                                AIR SEA DIR/SP/G                  HT/PER HT/PER
                 (UTC)          (F)     (DEG/KT/KT) (MB)    (MI)  (FT/S) (FT/S)
PORT ARANSAS     1400            67 63  160/ 18/ 19 1008.0S
BUOY 90 E PORT A 1250            71 71  180/ 19/ 25 1010.0          4/ 5
BUOY 45 SE BAFFI 1250            72     170/ 21/ 25 1008.4          4/ 6
BUOY 200 E PT IS 1250            71 74  180/ 14/ 16 1012.9          2/ 5   2/ 7
BUOY 15 E GALVES 1250            66 65  180/ 10/ 12 1010.3          1/ 4
$$




USA.gov is the U.S. government's official web portal to all federal, state and local government web resources and services.